EW2727 Weather Reports


time (UTC)temp
C
wind
direction
speed
KPH
gust
KPH
rain 1hr
cm
rain 24hr
cm
rain mn
cm
humidity
%
barometer
mb
20260507070050 13 313 0.0 0.0 0.00 0.15 0.00 85 1006.6
20260507064548 13 345 0.0 0.0 0.00 0.15 0.00 85 1006.9
20260507063052 13 315 0.0 0.0 0.00 0.15 0.00 86 1006.9
20260507061543 13 344 0.0 0.0 0.00 0.15 0.00 86 1006.6
20260507060041 14 360 0.0 0.0 0.00 0.15 0.00 86 1006.9
20260507054541 14 355 0.0 0.0 0.00 0.15 0.00 87 1007.0
20260507053039 14 307 0.0 0.0 0.00 0.15 0.00 88 1007.1
20260507051534 14 321 0.0 0.0 0.00 0.15 0.00 89 1007.0
20260507050034 15 331 0.0 0.0 0.00 0.15 0.00 91 1006.9
20260507044530 15 317 0.0 0.0 0.00 0.15 0.00 93 1006.9
20260507043029 15 319 0.0 0.0 0.00 0.15 0.00 93 1006.7
20260507041526 15 355 0.0 0.0 0.00 0.15 0.00 93 1006.8
20260507040024 15 306 0.0 0.0 0.00 0.15 0.15 93 1007.1
20260507034524 15 263 0.0 0.0 0.00 0.15 0.15 93 1007.1
20260507033026 15 288 0.0 0.0 0.00 0.15 0.15 93 1006.9
20260507031553 15 284 0.0 0.0 0.00 0.15 0.15 93 1006.7
20260507030052 15 270 0.0 0.0 0.00 0.15 0.15 93 1006.6
20260507024600 14 290 0.0 0.0 0.00 0.15 0.15 93 1006.6
20260507023050 14 250 0.0 0.0 0.00 0.15 0.15 93 1006.6
20260507021547 14 240 0.0 0.0 0.00 0.15 0.15 93 1006.6
20260507020105 14 289 0.0 0.0 0.00 0.15 0.15 93 1006.6
20260507014523 14 247 0.0 0.0 0.00 0.15 0.15 93 1006.8
20260507013035 14 246 0.0 0.0 0.00 0.15 0.15 93 1006.9
20260507011514 14 268 0.0 0.0 0.00 0.15 0.15 93 1007.0
20260507010018 13 258 0.0 0.0 0.00 0.15 0.15 93 1007.2
20260507004510 13 286 0.0 0.0 0.03 0.15 0.15 92 1007.2
20260507003009 13 233 0.0 0.0 0.03 0.15 0.15 92 1007.1
20260507001510 13 244 0.0 0.0 0.05 0.15 0.15 92 1007.0
20260507000006 14 146 0.0 0.0 0.05 0.15 0.15 92 1006.9
20260506234505 14 251 0.0 0.0 0.03 0.13 0.13 91 1006.9
20260506233007 14 301 0.0 0.0 0.03 0.13 0.13 91 1006.8
20260506231533 15 236 0.0 0.0 0.00 0.10 0.10 91 1006.8
20260506230035 15 261 0.0 0.0 0.03 0.10 0.10 91 1006.9
20260506224530 15 275 0.0 0.0 0.03 0.10 0.10 91 1006.9
20260506223029 15 271 0.0 0.0 0.05 0.10 0.10 91 1007.1
20260506221523 15 267 0.0 0.0 0.05 0.10 0.10 90 1007.3
20260506220025 15 273 0.0 0.0 0.05 0.08 0.08 89 1007.4
20260506214531 16 192 0.0 0.0 0.05 0.08 0.08 89 1007.6
20260506213020 16 279 0.0 0.0 0.03 0.05 0.05 88 1007.6
20260506211518 16 291 0.0 0.0 0.03 0.05 0.05 87 1007.7
20260506210020 16 360 0.0 0.0 0.03 0.03 0.03 86 1007.7
20260506204513 16 281 0.0 0.0 0.03 0.03 0.03 83 1007.9
20260506203013 17 271 0.0 0.0 0.03 0.03 0.03 80 1007.8
20260506201514 17 279 0.0 0.0 0.03 0.03 0.03 78 1007.7
20260506200012 18 318 0.0 0.0 0.00 0.00 0.00 75 1007.7
20260506194510 18 286 0.0 0.0 0.00 0.00 0.00 74 1007.8
20260506193007 18 261 0.0 0.0 0.00 0.00 0.00 72 1008.1
20260506191507 19 252 0.0 0.0 0.00 0.00 0.00 69 1008.0
20260506190009 19 269 0.0 0.0 0.00 0.00 0.00 66 1008.0
20260506184505 20 275 0.0 0.0 0.00 0.00 0.00 65 1008.0
20260506183047 20 232 0.0 0.0 0.00 0.00 0.00 64 1008.0
20260506181553 20 227 0.0 0.0 0.00 0.00 0.00 62 1008.2
20260506180033 21 279 0.0 0.0 0.00 0.00 0.00 61 1008.5
20260506174528 21 257 0.0 0.0 0.00 0.00 0.00 62 1008.7
20260506173025 21 273 0.0 0.0 0.00 0.00 0.00 62 1008.9
20260506171525 21 281 0.0 0.0 0.00 0.00 0.00 62 1008.7
20260506170022 20 232 0.0 0.0 0.00 0.00 0.00 63 1008.9
20260506164523 21 263 0.0 0.0 0.00 0.00 0.00 62 1009.1
20260506163019 21 275 0.0 0.0 0.00 0.00 0.00 62 1009.2
20260506161518 21 263 0.0 0.0 0.00 0.00 0.00 62 1009.4
20260506160014 20 217 0.0 0.0 0.00 0.00 0.00 63 1009.8
20260506154512 21 265 0.0 0.0 0.00 0.00 0.00 62 1010.0
20260506153019 21 243 0.0 0.0 0.00 0.00 0.00 61 1010.2
20260506151510 21 275 0.0 0.0 0.00 0.00 0.00 62 1010.1
20260506150042 20 315 0.0 0.0 0.00 0.00 0.00 64 1010.3
20260506144535 20 292 0.0 0.0 0.00 0.00 0.00 65 1010.2
20260506143033 20 243 0.0 0.0 0.00 0.00 0.00 65 1010.1
20260506141528 20 263 0.0 0.0 0.00 0.00 0.00 67 1010.0
20260506140025 19 321 0.0 0.0 0.00 0.00 0.00 71 1010.1
20260506134521 18 283 0.0 0.0 0.00 0.00 0.00 73 1010.3
20260506133015 18 281 0.0 0.0 0.00 0.00 0.00 73 1010.6
20260506131521 17 238 0.0 0.0 0.00 0.00 0.00 75 1010.5
20260506130011 17 286 0.0 0.0 0.00 0.00 0.00 77 1010.7
20260506124507 16 221 0.0 0.0 0.00 0.00 0.00 79 1010.8
20260506123005 16 315 0.0 0.0 0.00 0.00 0.00 80 1010.8
20260506121504 16 221 0.0 0.0 0.00 0.00 0.00 81 1010.7
20260506120008 15 272 0.0 0.0 0.00 0.00 0.00 82 1011.2
20260506114508 15 295 0.0 0.0 0.00 0.00 0.00 82 1011.5
20260506113100 15 227 0.0 0.0 0.00 0.00 0.00 83 1011.4
20260506111559 15 278 0.0 0.0 0.00 0.00 0.00 83 1011.2
20260506110059 15 296 0.0 0.0 0.00 0.00 0.00 83 1011.2
20260506104601 15 277 0.0 0.0 0.00 0.00 0.00 83 1011.4
20260506103057 15 258 0.0 0.0 0.00 0.00 0.00 83 1011.4
20260506101553 15 360 0.0 0.0 0.00 0.00 0.00 83 1011.1
20260506100052 15 280 0.0 0.0 0.00 0.00 0.00 82 1011.0
20260506094552 15 266 0.0 0.0 0.00 0.00 0.00 82 1010.9
20260506093049 15 282 0.0 0.0 0.00 0.00 0.00 82 1010.9
20260506091554 15 283 0.0 0.0 0.00 0.00 0.00 81 1010.8
20260506090053 15 295 0.0 0.0 0.00 0.00 0.00 80 1010.9
20260506084549 15 281 0.0 0.0 0.00 0.00 0.00 80 1010.8
20260506083042 16 285 0.0 0.0 0.00 0.00 0.00 79 1010.9
20260506081541 16 273 0.0 0.0 0.00 0.00 0.00 79 1010.8
20260506073008 16 263 0.0 0.0 0.00 0.00 0.00 77 1010.6
20260506071507 16 268 0.0 0.0 0.00 0.00 0.00 77 1010.6